Regional Weather Roundup
Issued by NWS

Home | Current Version | Previous Version | Graphics & Text | Print | Product List | Glossary On
Versions: 1 2 3 4 5 6 7 8 9 10 11 12 13 14 15 16 17 18 19 20 21 22 23 24 25 26 27 28 29 30 31 32 33 34 35 36 37 38 39 40 41 42 43 44 45 46 47 48 49 50
000
ASUS43 KDTX 232301
RWRMI
MICHIGAN HOURLY REGIONAL WEATHER ROUNDUP
NATIONAL WEATHER SERVICE DETROIT/PONTIAC MI
700 PM EDT FRI JUN 23 2017

NOTE: "FAIR" INDICATES FEW OR NO CLOUDS BELOW 12,000 FEET WITH NO
SIGNIFICANT WEATHER AND/OR OBSTRUCTION TO VISIBILITY.

MIZ047>049-052>055-059>063-066>070-074>076-081>083-240000-
SOUTHEAST LOWER MICHIGAN

CITY           SKY/WX    TMP DP  RH WIND       PRES   REMARKS
ADRIAN         CLOUDY    75  63  66 NW14G20   29.66S
ALMA           MOSUNNY   75  49  40 W10       29.66R
ANN ARBOR      PTSUNNY   75  64  68 W12       29.64R
BAD AXE        PTSUNNY   74  61  62 NW5       29.61R
CARO           CLOUDY    74  62  64 NW6       29.62R
DETROIT CITY   PTSUNNY   76  63  64 NW9       29.61R
DETROIT        CLOUDY    77  64  64 NW10      29.63S
FLINT          MOSUNNY   75  60  59 NW12      29.63R
GROSSE ILE     PTSUNNY   75  64  67 NW10G20   29.62R
HILLSDALE      CLOUDY    72  55  56 W13       29.68S
HOWELL         CLOUDY    75  57  53 NW8       29.65R

CITY           SKY/WX    TMP DP  RH WIND       PRES   REMARKS
JACKSON        CLOUDY    73  61  65 W9        29.67R
LAMBERTVILLE   CLOUDY    74  65  72 W8        29.64S
LANSING        MOSUNNY   76  54  46 NW10      29.66R
LAPEER         FAIR      75  59  56 W6        29.63R
MASON          PTSUNNY   74  57  55 W13       29.67R
MONROE         CLOUDY    75  67  75 W7        29.62S
MT. CLEMENS    CLOUDY    76  66  69 W10       29.59R
PONTIAC        CLOUDY    75  62  64 NW13      29.62R
PORT HOPE        N/A     69  66  90 CALM      29.59R
PORT HURON     CLOUDY    75  64  69 W5        29.61R
TRI CITIES     PTSUNNY   77  57  50 W10       29.63R
MIDLAND        FAIR      78  49  36 NW7       29.62R
TROY           CLOUDY    77  62  59 W8          N/A
SAGINAW HB     CLOUDY    77  54  44 W8        29.61S
$$
MIZ043>046-050>051-056>058-064>065-071>073-077>080-240000-
SOUTHWEST LOWER MICHIGAN

CITY           SKY/WX    TMP DP  RH WIND       PRES   REMARKS
BATTLE CREEK   MOSUNNY   76  56  49 W13       29.70R
BENTON HARBOR  SUNNY     75  56  51 W6        29.71F
BIG RAPIDS     SUNNY     75  42  30 W12G17    29.66S
COLDWATER      MOSUNNY   73  52  48 NW7       29.70S
FREMONT        FAIR      76  43  30 W10       29.67R
HOLLAND        SUNNY     76  54  46 W8        29.70S
GRAND RAPIDS   PTSUNNY   77  43  29 NW21G29   29.67S
IONIA          FAIR      77  45  32 W14       29.66S
KALAMAZOO      CLOUDY    76  49  38 W13       29.70S
LUDINGTON      CLOUDY    70  60  71 SW8       29.65S
MARSHALL       MOSUNNY   73  58  59 W6        29.69R
MOUNT PLEASANT CLOUDY    75  44  32 NW9G18    29.64S
MUSKEGON       MOSUNNY   73  61  65 SW9       29.69R
SOUTH HAVEN    MOSUNNY   73  61  65 W7        29.71S
$$
MIZ016>042-240000-
NORTHERN LOWER MICHIGAN

CITY           SKY/WX    TMP DP  RH WIND       PRES   REMARKS
ALPENA         SUNNY     78  44  29 NW8       29.59R
BEAVER ISLAND  PTSUNNY   70  54  56 N6        29.63R
BELLAIRE       SUNNY     75  46  35 CALM      29.61F
CADILLAC       SUNNY     73  46  36 W8        29.66R
CHARLEVOIX     CLOUDY    72  49  44 SW7       29.63S
FRANKFORT      PTSUNNY   69  56  61 SW5       29.64R
GAYLORD        SUNNY     74  41  30 W13G25    29.63S
GRAYLING       SUNNY     74  45  35 NW12G23   29.64S
HARBOR SPRINGS CLOUDY    69  52  55 NW12G22   29.61R
HOUGHTON LAKE  SUNNY     75  43  31 W14       29.65R
MANISTEE       MOSUNNY   75  52  44 W9        29.64R
OSCODA         CLOUDY    73  63  71 SE7       29.60R
PELLSTON       PTSUNNY   71  52  50 NW14G20   29.62R
ROGERS CITY    SUNNY     75  46  34 W13       29.60R
TRAVERSE CITY  MOSUNNY   78  48  34 W17       29.60F
$$
MIZ007>008-015-240000-
EASTERN UPPER MICHIGAN

CITY           SKY/WX    TMP DP  RH WIND       PRES   REMARKS
KINROSS        CLOUDY    63  48  58 NW16      29.63R
MACKINAC ISLAN CLOUDY    66  57  73 N7        29.62R
NEWBERRY       MOSUNNY   63  48  58 NW7       29.64R
S. S. MARIE    CLOUDY    65  48  54 W9        29.62R
$$
MIZ004>006-011>014-085-240000-
CENTRAL UPPER MICHIGAN

CITY           SKY/WX    TMP DP  RH WIND       PRES   REMARKS
MANISTIQUE     SUNNY     68  48  49 N12G21    29.63R
ESCANABA       SUNNY     74  48  39 NW13G21   29.62R
MENOMINEE      CLOUDY    73  50  44 VRB7      29.65R
SAWYER-GWINN   PTSUNNY   68  46  45 NW16      29.65R
$$
MIZ001>003-009>011-084-240000-
WESTERN UPPER MICHIGAN

CITY           SKY/WX    TMP DP  RH WIND       PRES   REMARKS
IRON MOUNTAIN  MOSUNNY   71  45  39 NW16G22   29.66R
HOUGHTON       PTSUNNY   65  49  56 W16G28    29.65R
COPPER HARBOR    N/A     66  48  52 N17G28    29.62R
IRONWOOD       MOSUNNY   66  49  54 W9        29.72S
$$

ABBREVIATIONS USED IN REMARKS
   TC - TEMPERATURE IN CELSIUS
  WCI - WIND CHILL INDEX
   HX - HEAT INDEX
  VSB - VISIBILITY





USA.gov is the U.S. government's official web portal to all federal, state and local government web resources and services.